sat.trackr.live / text

‹ back to catalog

STARLINK-34084

NORAD 63970 · 2025-099U

PAYLOAD ACTIVE UNKNOWN

§ Identity

Operator
Country
US
Launch date
2025-05-13
Launch site
AFETR
Launch vehicle
Mass (kg)
RCS (m²)

Purposes: comms

External: N2YO · Heavens-Above · Gunter

§ Orbital elements

Epoch: 2026-05-24T21:08:14.166528Z

Period
94.27 min
Inclination
43.0026°
Eccentricity
0.0002022
Mean motion
15.27583917 rev/d
Perigee alt
481.7 km
Apogee alt
484.4 km
Semi-major
6,861.2 km
B*
3.7195e-4
RAAN
105.5012°
Arg perigee
262.6900°
Mean anomaly
97.3722°
Rev number
5,899

§ Raw data

STARLINK-340841 63970U 25099U   26144.88071952  .00009988  00000+0  37195-3 0  99982 63970  43.0026 105.5012 0002022 262.6900  97.3722 15.27583917 58996

JSON: /api/v1/satellites/63970 · /tle

For live sub-satellite position, see the globe view (requires WebGL).

§ Visibility from observer

Set your observer location to see the next 7 days of passes ≥ 10°. The values pass through the URL so the page stays shareable.

No JS? Fill the form by hand. The geolocation button needs JavaScript.